Radiation Dose at Monitoring Post of Fukushima Daini Nuclear Power Station
Date,Time,MP-1(microSv/h),MP-2(microSv/h),MP-3(microSv/h),MP-4(microSv/h),MP-5(microSv/h),MP-6(microSv/h),MP-7(microSv/h),Wind Direction,Wind Velocity(m/s),Rain
2021/06/17,00:00,0.171,0.156,0.254,0.244,0.236,0.133,0.082,north-northeast,3.4,Yes
2021/06/17,00:10,0.171,0.155,0.250,0.243,0.237,0.132,0.082,north-northeast,3.1,No
2021/06/17,00:20,0.171,0.156,0.253,0.244,0.236,0.134,0.083,north,3.4,No
2021/06/17,00:30,0.171,0.155,0.253,0.245,0.237,0.133,0.082,north-northeast,3.9,No
2021/06/17,00:40,0.169,0.156,0.250,0.243,0.237,0.133,0.082,north-northeast,4.1,No
2021/06/17,00:50,0.171,0.155,0.253,0.245,0.234,0.133,0.081,north-northeast,4.2,No
2021/06/17,01:00,0.170,0.155,0.250,0.244,0.237,0.132,0.082,northeast,3.5,No
2021/06/17,01:10,0.170,0.155,0.252,0.243,0.235,0.133,0.082,north-northeast,2.9,No
2021/06/17,01:20,0.171,0.155,0.251,0.245,0.237,0.132,0.081,north-northeast,2.5,No
2021/06/17,01:30,0.169,0.156,0.252,0.241,0.237,0.133,0.082,north,2.1,No
2021/06/17,01:40,0.171,0.155,0.252,0.245,0.236,0.132,0.082,north,1.6,No
2021/06/17,01:50,0.170,0.155,0.250,0.242,0.237,0.132,0.082,north,1.8,No
2021/06/17,02:00,0.170,0.156,0.253,0.244,0.236,0.133,0.082,north-northeast,1.1,No
2021/06/17,02:10,0.170,0.155,0.251,0.244,0.237,0.133,0.082,northeast,2.9,No
2021/06/17,02:20,0.169,0.155,0.252,0.243,0.238,0.132,0.082,north,2.9,No
2021/06/17,02:30,0.172,0.156,0.252,0.245,0.234,0.133,0.082,north-northeast,2.4,No
2021/06/17,02:40,0.170,0.156,0.252,0.243,0.239,0.131,0.082,north-northeast,2.9,No
2021/06/17,02:50,0.170,0.155,0.251,0.245,0.236,0.132,0.082,north-northeast,1.8,No
2021/06/17,03:00,0.171,0.155,0.251,0.245,0.238,0.132,0.081,north-northeast,1.4,No
2021/06/17,03:10,0.170,0.154,0.253,0.242,0.237,0.133,0.082,north-northeast,2.6,No
2021/06/17,03:20,0.172,0.155,0.251,0.244,0.235,0.133,0.082,north-northeast,2.0,No
2021/06/17,03:30,0.170,0.155,0.252,0.242,0.238,0.132,0.083,north,1.7,No
2021/06/17,03:40,0.170,0.154,0.252,0.244,0.235,0.133,0.081,north-northeast,2.0,No
2021/06/17,03:50,0.171,0.155,0.250,0.243,0.236,0.133,0.082,north,2.7,No
2021/06/17,04:00,0.170,0.156,0.251,0.244,0.236,0.132,0.082,north-northeast,2.0,No
2021/06/17,04:10,0.172,0.156,0.251,0.244,0.234,0.132,0.081,north-northeast,2.4,No
2021/06/17,04:20,0.170,0.155,0.253,0.243,0.237,0.132,0.082,north-northeast,3.3,No
2021/06/17,04:30,0.171,0.157,0.253,0.245,0.235,0.133,0.081,north-northeast,2.8,Yes
2021/06/17,04:40,0.170,0.155,0.251,0.242,0.236,0.133,0.083,north-northeast,3.7,No
2021/06/17,04:50,0.170,0.154,0.251,0.244,0.237,0.131,0.081,north-northeast,3.6,No
2021/06/17,05:00,0.171,0.156,0.252,0.243,0.234,0.133,0.082,north-northeast,2.9,No
2021/06/17,05:10,0.171,0.154,0.253,0.243,0.238,0.133,0.083,north-northeast,4.4,No
2021/06/17,05:20,0.171,0.156,0.250,0.244,0.236,0.132,0.081,northeast,3.6,No
2021/06/17,05:30,0.171,0.154,0.253,0.243,0.237,0.133,0.082,northeast,4.7,No
2021/06/17,05:40,0.172,0.155,0.251,0.244,0.236,0.132,0.083,northeast,4.3,No
2021/06/17,05:50,0.170,0.155,0.252,0.243,0.234,0.133,0.082,northeast,5.1,No
2021/06/17,06:00,0.170,0.156,0.252,0.243,0.237,0.132,0.082,northeast,4.6,No
2021/06/17,06:10,0.171,0.156,0.251,0.245,0.235,0.131,0.080,northeast,4.3,No
2021/06/17,06:20,0.169,0.155,0.253,0.242,0.236,0.132,0.081,north-northeast,4.3,No
2021/06/17,06:30,0.171,0.156,0.250,0.245,0.238,0.132,0.082,north-northeast,3.4,No
2021/06/17,06:40,0.171,0.155,0.254,0.243,0.234,0.132,0.082,north-northeast,4.9,No
2021/06/17,06:50,0.170,0.157,0.252,0.243,0.237,0.132,0.081,north-northeast,4.7,No
2021/06/17,07:00,0.171,0.155,0.249,0.244,0.237,0.132,0.082,north-northeast,4.3,No
2021/06/17,07:10,0.169,0.155,0.253,0.242,0.236,0.132,0.081,north-northeast,4.0,No
2021/06/17,07:20,0.171,0.156,0.250,0.244,0.239,0.132,0.082,north-northeast,5.2,No
2021/06/17,07:30,0.170,0.155,0.253,0.243,0.236,0.131,0.082,north-northeast,3.9,No
2021/06/17,07:40,0.169,0.156,0.252,0.240,0.235,0.133,0.082,north-northeast,3.8,No
2021/06/17,07:50,0.172,0.155,0.250,0.245,0.237,0.132,0.083,north-northeast,5.4,No
2021/06/17,08:00,0.171,0.155,0.253,0.244,0.235,0.131,0.082,northeast,4.8,No
2021/06/17,08:10,0.171,0.156,0.251,0.241,0.232,0.132,0.081,north-northeast,5.3,No
2021/06/17,08:20,0.171,0.156,0.251,0.244,0.237,0.133,0.082,north-northeast,5.1,No
2021/06/17,08:30,0.169,0.155,0.253,0.244,0.237,0.132,0.082,north-northeast,5.1,No
2021/06/17,08:40,0.170,0.157,0.252,0.242,0.234,0.131,0.082,north-northeast,5.8,No
2021/06/17,08:50,0.171,0.156,0.249,0.239,0.234,0.133,0.081,north-northeast,7.8,No
2021/06/17,09:00,0.169,0.155,0.252,0.244,0.233,0.133,0.081,north-northeast,6.5,No
2021/06/17,09:10,0.171,0.155,0.253,0.246,0.236,0.133,0.082,north-northeast,6.2,No
2021/06/17,09:20,0.171,0.156,0.250,0.243,0.237,0.132,0.081,north-northeast,6.7,No
2021/06/17,09:30,0.169,0.155,0.248,0.242,0.235,0.132,0.082,north-northeast,6.6,No
2021/06/17,09:40,0.171,0.154,0.247,0.241,0.234,0.133,0.081,north-northeast,6.9,No
2021/06/17,09:50,0.171,0.155,-,0.243,0.234,0.133,0.081,north-northeast,7.5,No
2021/06/17,10:00,0.169,0.155,-,0.246,0.238,0.133,0.083,north-northeast,7.0,No
2021/06/17,10:10,0.170,0.156,-,0.244,0.237,0.132,0.082,north-northeast,5.6,No
2021/06/17,10:20,0.171,0.154,-,0.243,0.235,0.132,0.082,north-northeast,7.0,No
2021/06/17,10:30,0.170,0.154,-,0.241,0.235,0.133,0.081,north-northeast,5.6,No
2021/06/17,10:40,0.170,0.155,-,0.242,0.234,0.132,0.081,north-northeast,7.3,No
2021/06/17,10:50,0.169,0.156,-,0.243,0.235,0.132,0.081,north-northeast,6.0,No
2021/06/17,11:00,0.171,0.156,-,0.243,0.236,0.133,0.081,north,6.0,No
2021/06/17,11:10,0.171,0.156,-,0.241,0.235,0.133,0.081,north-northeast,6.9,No
2021/06/17,11:20,0.170,0.156,-,0.241,0.235,0.133,0.082,north-northeast,6.9,No
2021/06/17,11:30,0.170,0.156,-,0.242,0.234,0.133,0.082,north-northeast,7.9,No
2021/06/17,11:40,0.171,0.154,-,0.241,0.234,0.134,0.081,north-northeast,7.5,No
2021/06/17,11:50,0.172,0.156,-,0.243,0.235,0.133,0.082,north-northeast,7.9,No
2021/06/17,12:00,0.171,0.156,-,0.243,0.235,0.133,0.081,north-northeast,8.5,No
2021/06/17,12:10,0.169,0.155,-,0.241,0.235,0.133,0.081,north-northeast,8.8,No
2021/06/17,12:20,0.170,0.155,-,0.243,0.235,0.133,0.082,north-northeast,8.9,No
2021/06/17,12:30,0.173,0.154,-,0.243,0.234,0.133,0.083,north-northeast,7.5,No
2021/06/17,12:40,0.171,0.155,-,0.246,0.234,0.132,0.083,north-northeast,8.1,No
2021/06/17,12:50,0.170,0.157,-,0.247,0.234,0.134,0.083,north-northeast,8.1,No
2021/06/17,13:00,0.169,0.156,-,0.245,0.239,0.134,0.082,north-northeast,7.1,No
2021/06/17,13:10,0.172,0.155,-,0.244,0.240,0.132,0.081,north-northeast,6.7,No
2021/06/17,13:20,0.172,0.155,-,0.241,0.237,0.134,0.081,north-northeast,6.4,No
2021/06/17,13:30,0.169,0.156,-,0.243,0.235,0.133,0.082,north-northeast,7.8,No
2021/06/17,13:40,0.170,0.156,-,0.244,0.235,0.133,0.081,north-northeast,7.3,No
2021/06/17,13:50,0.172,0.155,-,0.245,0.235,0.133,0.082,north-northeast,7.9,No
2021/06/17,14:00,0.172,0.154,-,0.246,0.235,0.133,0.083,north-northeast,7.1,No
2021/06/17,14:10,0.170,0.156,-,0.245,0.235,0.133,0.082,north-northeast,5.8,No
2021/06/17,14:20,0.170,0.156,-,0.243,0.236,0.133,0.082,north-northeast,6.0,No
2021/06/17,14:30,0.172,0.156,-,0.242,0.234,0.133,0.082,north-northeast,7.5,No
2021/06/17,14:40,0.171,0.153,-,0.244,0.234,0.133,0.081,north-northeast,5.8,No
2021/06/17,14:50,0.169,0.155,-,0.246,0.235,0.134,0.081,north-northeast,6.9,No
2021/06/17,15:00,0.171,0.156,-,0.246,0.236,0.133,0.082,north-northeast,7.0,No
2021/06/17,15:10,0.172,0.155,-,0.243,0.234,0.134,0.082,north-northeast,6.5,No
2021/06/17,15:20,0.170,0.155,-,0.243,0.236,0.133,0.083,north-northeast,7.3,No
2021/06/17,15:30,0.171,0.156,0.252,0.246,0.236,0.132,0.081,north-northeast,6.9,No
2021/06/17,15:40,0.173,0.155,0.251,0.246,0.236,0.133,0.082,north-northeast,7.4,No
2021/06/17,15:50,0.171,0.154,0.251,0.244,0.234,0.133,0.081,north-northeast,7.3,No
2021/06/17,16:00,0.170,0.156,0.255,0.242,0.235,0.133,0.082,north-northeast,7.5,No
2021/06/17,16:10,0.172,0.156,0.252,0.246,0.237,0.133,0.082,north-northeast,7.2,No
2021/06/17,16:20,0.172,0.156,0.252,0.244,0.240,0.135,0.082,north-northeast,7.5,No
2021/06/17,16:30,0.170,0.157,0.254,0.244,0.238,0.134,0.082,north-northeast,6.6,No
2021/06/17,16:40,0.172,0.156,0.251,0.246,0.235,0.132,0.082,north-northeast,7.0,No
2021/06/17,16:50,0.171,0.156,0.254,0.247,0.236,0.133,0.082,north-northeast,6.4,No
2021/06/17,17:00,0.169,0.157,0.252,0.244,0.239,0.133,0.082,north-northeast,7.0,No
2021/06/17,17:10,0.172,0.156,0.253,0.246,0.238,0.133,0.082,north-northeast,6.0,No
2021/06/17,17:20,0.172,0.157,0.253,0.245,0.236,0.133,0.082,north-northeast,6.8,No
2021/06/17,17:30,0.171,0.157,0.251,0.246,0.238,0.132,0.083,north-northeast,6.2,No
2021/06/17,17:40,0.173,0.156,0.254,0.246,0.238,0.133,0.083,north,5.8,No
2021/06/17,17:50,0.171,0.157,0.252,0.245,0.237,0.134,0.083,north,5.5,No
2021/06/17,18:00,0.171,0.156,0.254,0.246,0.239,0.133,0.083,north-northeast,5.6,No
2021/06/17,18:10,0.172,0.157,0.252,0.245,0.238,0.133,0.082,north-northeast,5.7,No
2021/06/17,18:20,0.171,0.155,0.253,0.246,0.235,0.133,0.083,north,4.9,No
2021/06/17,18:30,0.171,0.158,0.253,0.245,0.240,0.134,0.082,north,5.3,No
2021/06/17,18:40,0.171,0.155,0.253,0.246,0.237,0.134,0.083,north,3.7,No
2021/06/17,18:50,0.172,0.157,0.253,0.246,0.238,0.134,0.083,north,4.4,No
2021/06/17,19:00,0.172,0.156,0.252,0.246,0.239,0.133,0.083,north-northeast,4.5,No
2021/06/17,19:10,0.170,0.157,0.253,0.245,0.238,0.133,0.083,north,4.0,No
2021/06/17,19:20,0.171,0.156,0.252,0.244,0.238,0.133,0.082,north,4.7,No
2021/06/17,19:30,0.171,0.157,0.254,0.245,0.238,0.134,0.083,north,4.0,No
2021/06/17,19:40,0.172,0.156,0.252,0.246,0.239,0.133,0.082,north-northwest,4.2,No
2021/06/17,19:50,0.171,0.157,0.253,0.246,0.237,0.133,0.083,north,3.4,No
2021/06/17,20:00,0.171,0.156,0.252,0.244,0.239,0.135,0.083,north-northwest,4.2,No
2021/06/17,20:10,0.171,0.156,0.254,0.245,0.237,0.133,0.082,north-northwest,4.2,No
2021/06/17,20:20,0.172,0.156,0.253,0.245,0.238,0.133,0.083,north-northwest,4.1,No
2021/06/17,20:30,0.172,0.156,0.254,0.247,0.238,0.134,0.083,north-northwest,4.6,No
2021/06/17,20:40,0.171,0.156,0.251,0.244,0.237,0.133,0.082,north-northwest,4.9,No
2021/06/17,20:50,0.171,0.156,0.253,0.246,0.238,0.133,0.082,north-northwest,4.6,No
2021/06/17,21:00,0.170,0.155,0.251,0.244,0.237,0.134,0.083,north-northwest,4.9,No
2021/06/17,21:10,0.173,0.157,0.254,0.246,0.237,0.134,0.082,north,5.3,No
2021/06/17,21:20,0.170,0.156,0.252,0.244,0.236,0.133,0.082,north,5.4,No
2021/06/17,21:30,0.172,0.156,0.254,0.246,0.238,0.134,0.083,north,5.0,No
2021/06/17,21:40,0.171,0.157,0.252,0.244,0.235,0.132,0.082,north,4.6,No
2021/06/17,21:50,0.171,0.157,0.254,0.245,0.239,0.134,0.082,north,3.6,No
2021/06/17,22:00,0.173,0.156,0.252,0.245,0.236,0.133,0.083,north,4.7,No
2021/06/17,22:10,0.171,0.157,0.254,0.245,0.239,0.134,0.081,north,3.6,No
2021/06/17,22:20,0.172,0.157,0.253,0.244,0.238,0.134,0.082,north,4.0,No
2021/06/17,22:30,0.170,0.156,0.253,0.243,0.237,0.133,0.082,north-northwest,3.9,No
2021/06/17,22:40,0.172,0.157,0.252,0.245,0.238,0.134,0.083,north,3.9,No
2021/06/17,22:50,0.171,0.156,0.253,0.243,0.236,0.132,0.082,north,2.8,No
2021/06/17,23:00,0.171,0.157,0.253,0.246,0.238,0.134,0.082,north,3.4,No
2021/06/17,23:10,0.171,0.155,0.254,0.245,0.235,0.133,0.083,north-northeast,3.0,No
2021/06/17,23:20,0.172,0.157,0.252,0.246,0.240,0.133,0.082,north,3.0,No
2021/06/17,23:30,0.172,0.157,0.252,0.245,0.236,0.134,0.083,north,3.1,No
2021/06/17,23:40,0.170,0.157,0.254,0.245,0.237,0.133,0.082,north-northwest,3.0,No
2021/06/17,23:50,0.172,0.158,0.251,0.246,0.237,0.134,0.082,north-northwest,2.8,No
